Tracking 28081 objects as of 27-Sep-2023
HD Live streaming from Space Station
objects crossing your sky now

TITAN 3C TRANSTAGE R/B

Track TITAN 3C TRANSTAGE R/B now!


NORAD ID: 3956
Int'l Code: 1969-046F
Perigee: 6,620.2 km
Apogee: 122,013.7 km
Inclination: 15.6 °
Period: 3,117.3 minutes
Semi major axis: 70687 km
RCS: 6.4225 m2 (large)
Launch date: May 23, 1969
Source: United States (US)
Launch site: AIR FORCE EASTERN TEST RANGE (AFETR)

Note: This is a ROCKET BODY
Your satellite tracking list
Your tracking list is empty




NASA's NSSDC Master Catalog

Two Line Element Set (TLE):
1 03956U 69046F   23271.72971381 -.00000143  00000-0  00000-0 0  9990
2 03956  15.6327   5.7814 8162179 275.6976   0.4619  0.46193935 16603
Source of the keplerian elements: AFSPC